Regional Weather Roundup
Issued by NWS

Home | Current Version | Previous Version | Graphics & Text | Print | Product List | Glossary Off
Versions: 1 2 3 4 5 6 7 8 9 10 11 12 13 14 15 16 17 18 19 20 21 22 23 24 25 26 27 28 29 30 31 32 33 34 35 36 37 38 39 40 41 42 43 44 45 46 47 48 49 50

000
ASUS43 KDMX 212307
RWRIA

WEATHER ROUNDUP FOR IOWA
NATIONAL WEATHER SERVICE DES MOINES IA
600 PM CDT MON JUL 21 2014

NOTE: "FAIR" INDICATES FEW OR NO CLOUDS BELOW 12,000 FEET WITH NO
SIGNIFICANT WEATHER AND/OR OBSTRUCTIONS TO VISIBILITY.

* - THESE STATIONS ARE NOT NWS STATIONS...THUS NOT UNDER NWS
QUALITY CONTROL.  THEY ALSO DO NOT REPORT WEATHER SUCH
AS PRECIPITATION OR FOG.

IAZ001>003-012>014-020>022-031>034-043>046-220000-
   NORTHWEST IOWA

CITY           SKY/WX    TMP DP  RH WIND       PRES   REMARKS
CARROLL *      PTSUNNY   88  79  74 S9G16     29.87S HX 102
CHEROKEE *     PTSUNNY   88  79  74 S12G17    29.84S HX 102
DENISON *      SUNNY     90  79  70 S9G16     29.84S HX 105
LE MARS *      SUNNY     88  79  74 SE10      29.80F HX 102
ORANGE CITY *  SUNNY     88  79  74 N3        29.83F HX 102
SHELDON *      SUNNY     84  77  79 S9G16     29.83R HX  94
SIOUX CITY     PTSUNNY   92  78  63 S15       29.78F HX 107
SPENCER        PTSUNNY   85  76  74 S9        29.86S HX  94
STORM LAKE *   MOSUNNY   86  81  84 S12       29.87F HX 102
$$

IAZ055>058-069>071-079>083-090>094-220000-
   SOUTHWEST IOWA

CITY           SKY/WX    TMP DP  RH WIND       PRES   REMARKS
ATLANTIC *     SUNNY     90  79  70 S14G21    29.87S HX 105
AUDUBON *      SUNNY     91  82  75 S13       29.89S HX 114
CLARINDA *     SUNNY     90  79  70 S13G20    29.90S HX 105
COUNCIL BLFS * SUNNY     91  79  66 S12G20    29.85S HX 107
CRESTON *      SUNNY     90  77  66 S18G24    29.91R HX 102
HARLAN  *      SUNNY     90  81  74 S14       29.90S HX 108
LAMONI         SUNNY     88  76  67 S15G23    29.92F HX  99
RED OAK *      SUNNY     90  79  70 S9G18     29.88S HX 105
SHENANDOAH *   SUNNY     91  79  66 S13G21    29.88S HX 107
$$

IAZ047>049-059>061-072>074-084-220000-
   CENTRAL IOWA

CITY           SKY/WX    TMP DP  RH WIND       PRES   REMARKS
AMES           MOSUNNY   87  76  69 S12       29.89R HX  97
ANKENY *       SUNNY     90  77  66 S14G22    29.88S HX 102
CHARITON *     SUNNY     88  77  70 S16G25    29.92F HX 100
DES MOINES     MOSUNNY   92  77  61 S13       29.88S HX 105
GRINNELL*      SUNNY     88  75  66 SE16G24   29.92F HX  97
KNOXVILLE *    SUNNY     88  75  66 S15G22    29.90S HX  97
MARSHALLTOWN   MOSUNNY   88  76  67 S16G24    29.90R HX  99
PELLA *        SUNNY     88  75  66 S16G24    29.92F HX  97
PERRY *          N/A     90  77  66 S12       29.88S HX 102
$$

IAZ004>006-015-016-023>025-035-036-220000-
   NORTH CENTRAL IOWA

CITY           SKY/WX    TMP DP  RH WIND       PRES   REMARKS
ALGONA *       MOSUNNY   84  77  79 S13G21    29.88F HX  94
CLARION *      CLOUDY    86  77  74 S14       29.90R HX  97
ESTHERVILLE    PTSUNNY   84  75  74 S13       29.87S HX  92
FORT DODGE *   CLOUDY    88  75  66 S8        29.89S HX  97
MASON CITY     CLOUDY    85  76  74 S9        29.92R HX  94
FOREST CITY *  CLOUDY    84  75  74 SE9       29.91R HX  92
IOWA FALLS *   CLOUDY    84  75  74 S12       29.92S HX  92
$$

IAZ007>011-017>019-026>030-037>042-050>054-066-220000-
   NORTHEAST IOWA

CITY           SKY/WX    TMP DP  RH WIND       PRES   REMARKS
CEDAR RAPIDS   SUNNY     84  72  67 S13G21    29.95F HX  89
CHARLES CITY * PTSUNNY   84  73  70 S13G18    29.93R HX  91
DECORAH *      SUNNY     84  73  70 SE12G20   29.93F HX  91
DUBUQUE        MOSUNNY   81  69  67 S12G22    30.00F HX  84
MONTICELLO *   SUNNY     84  72  65 SE12G23   29.97F HX  89
OELWEIN *      SUNNY     86  73  66 S18G25    29.94F HX  93
WATERLOO       MOSUNNY   86  73  65 S16G28    29.91R HX  93
$$

IAZ064-065-067-068-078-220000-
   EAST CENTRAL IOWA

CITY           SKY/WX    TMP DP  RH WIND       PRES   REMARKS
DAVENPORT      SUNNY     84  69  60 S14       30.01F HX  88
IOWA CITY      SUNNY     85  73  67 S14       29.97F HX  91
MT. PLEASANT * SUNNY     86  68  54 S10G17    29.99S HX  89
MUSCATINE *    SUNNY     86  70  58 S14G21    29.98F HX  90
QUAD CITIES    SUNNY     84  70  62 S9        30.00F HX  88
$$

IAZ062-063-075>077-085>089-095>099-220000-
   SOUTHEAST IOWA

CITY           SKY/WX    TMP DP  RH WIND       PRES   REMARKS
BURLINGTON     SUNNY     85  70  60 S14       30.00F HX  89
FAIRFIELD *    SUNNY     86  70  58 S15       29.97F HX  90
FORT MADISON * SUNNY     86  70  58 S8        30.01S HX  90
KEOKUK *       SUNNY     86  70  58 S7G14     29.99F HX  90
OSKALOOSA *      N/A     88  75  66 S16       29.94F HX  97
CENTERVILLE *  SUNNY     86  77  74 S10G17    29.97F HX  97
OTTUMWA        SUNNY     87  75  67 S14G21    29.93F HX  96
WASHINGTON *   SUNNY     86  73  66 S15       29.97F HX  93
$$

ABBREVIATIONS USED IN REMARKS
   TC - TEMPERATURES IN CELSIUS
  WCI - WIND CHILL INDEX
   HX - HEAT INDEX
  VSB - VISIBILITY
$$




USA.gov is the U.S. government's official web portal to all federal, state and local government web resources and services.